sat.trackr.live / text

‹ back to catalog

ONEWEB-0323

NORAD 49106 · 2021-075AH

PAYLOAD ACTIVE UNKNOWN

§ Identity

Operator
Country
UK
Launch date
2021-08-21
Launch site
TYMSC
Launch vehicle
Mass (kg)
RCS (m²)

Purposes: comms

External: N2YO · Heavens-Above · Gunter

§ Orbital elements

Epoch: 2026-05-25T02:14:29.557824Z

Period
109.72 min
Inclination
87.8961°
Eccentricity
0.0002307
Mean motion
13.12443140 rev/d
Perigee alt
1,212.0 km
Apogee alt
1,215.5 km
Semi-major
7,591.9 km
B*
3.6693e-4
RAAN
355.2416°
Arg perigee
93.2325°
Mean anomaly
266.9068°
Rev number
23,152

§ Raw data

ONEWEB-03231 49106U 21075AH  26145.09339766  .00000145  00000+0  36693-3 0  99952 49106  87.8961 355.2416 0002307  93.2325 266.9068 13.12443140231526

JSON: /api/v1/satellites/49106 · /tle

For live sub-satellite position, see the globe view (requires WebGL).

§ Visibility from observer

Set your observer location to see the next 7 days of passes ≥ 10°. The values pass through the URL so the page stays shareable.

No JS? Fill the form by hand. The geolocation button needs JavaScript.